Location: Praha
(50.0830°N, 14.4670°E)
Time: 17:02:33
(UTC+02:00)

ISS - Pass Details

Date: 03 September 2024
Orbit: 414 x 424 km, 51.6° (Epoch: 16 September)

Event Time Altitude Azimuth Distance (km) Brightness Sun altitude
Exits shadow 04:32:59 29° 288° (WNW) 809 -2.7 -16.6°
Maximum altitude 04:34:35 82° 14° (NNE) 437 -3.7 -16.4°
Drops below altitude 10° 04:38:01 10° 102° (ESE) 1,522 -0.3 -15.9°
Sets 04:40:07 0° 103° (ESE) 2,388 0.8 -15.6°
